TimeCST,TemperatureF,Dew PointF,Humidity,Sea Level PressureIn,VisibilityMPH,Wind Direction,Wind SpeedMPH,Gust SpeedMPH,PrecipitationIn,Events,Conditions,WindDirDegrees,DateUTC
12:10 AM,59.0,59.0,100,29.75,0.5,ENE,9.2,-,N/A,Fog,Fog,70,2013-02-25 06:10:00
12:18 AM,60.8,60.8,100,29.75,0.2,East,5.8,-,N/A,Fog,Fog,90,2013-02-25 06:18:00
12:51 AM,62.1,62.1,100,29.74,0.2,East,6.9,-,N/A,Fog,Fog,80,2013-02-25 06:51:00
1:18 AM,62.6,62.6,100,29.73,1.0,Calm,Calm,-,0.02,Rain,Light Rain,0,2013-02-25 07:18:00
1:35 AM,62.6,62.6,100,29.73,0.5,East,4.6,-,0.03,Fog,Fog,100,2013-02-25 07:35:00
1:43 AM,62.6,62.6,100,29.72,0.2,ESE,3.5,-,0.03,Fog-Rain,Light Rain,110,2013-02-25 07:43:00
1:51 AM,62.1,62.1,100,29.73,0.2,ESE,3.5,-,0.03,Fog,Fog,120,2013-02-25 07:51:00
2:31 AM,66.2,66.2,100,29.71,0.5,South,6.9,-,N/A,Fog,Fog,180,2013-02-25 08:31:00
2:43 AM,66.2,66.2,100,29.71,1.8,South,8.1,-,N/A,,Overcast,180,2013-02-25 08:43:00
2:51 AM,66.9,66.9,100,29.71,0.8,South,6.9,-,N/A,,Overcast,170,2013-02-25 08:51:00
3:17 AM,66.2,66.2,100,29.70,1.2,South,9.2,-,N/A,,Overcast,170,2013-02-25 09:17:00
3:41 AM,66.2,66.2,100,29.69,1.5,South,9.2,-,N/A,,Overcast,170,2013-02-25 09:41:00
3:51 AM,66.0,66.0,100,29.70,2.0,South,6.9,-,N/A,,Overcast,180,2013-02-25 09:51:00
3:56 AM,66.2,66.2,100,29.69,3.0,South,10.4,-,N/A,,Overcast,180,2013-02-25 09:56:00
4:03 AM,66.2,66.2,100,29.69,2.5,South,12.7,-,N/A,,Overcast,180,2013-02-25 10:03:00
4:25 AM,66.2,66.2,100,29.69,3.0,SSW,11.5,-,N/A,,Overcast,200,2013-02-25 10:25:00
4:51 AM,66.9,66.9,100,29.70,3.0,SSW,11.5,-,N/A,,Overcast,200,2013-02-25 10:51:00
5:03 AM,66.2,66.2,100,29.71,2.0,SSW,9.2,-,N/A,,Overcast,200,2013-02-25 11:03:00
5:05 AM,66.2,66.2,100,29.71,1.8,SSW,8.1,-,N/A,,Overcast,210,2013-02-25 11:05:00
5:51 AM,66.0,66.0,100,29.71,1.0,South,8.1,-,N/A,,Overcast,190,2013-02-25 11:51:00
6:16 AM,66.2,66.2,100,29.71,0.8,SSW,6.9,-,N/A,,Overcast,200,2013-02-25 12:16:00
6:24 AM,66.2,66.2,100,29.71,1.0,South,6.9,-,N/A,,Overcast,180,2013-02-25 12:24:00
6:35 AM,66.2,66.2,100,29.72,0.8,SSE,5.8,-,N/A,,Overcast,160,2013-02-25 12:35:00
6:45 AM,66.2,66.2,100,29.72,0.2,SSE,6.9,-,N/A,Fog,Fog,160,2013-02-25 12:45:00
6:51 AM,66.9,66.9,100,29.72,0.2,SSE,8.1,-,N/A,Fog,Fog,160,2013-02-25 12:51:00
6:57 AM,66.2,66.2,100,29.72,0.5,South,8.1,-,N/A,Fog,Fog,170,2013-02-25 12:57:00
7:06 AM,66.2,66.2,100,29.72,0.8,SSE,9.2,-,N/A,,Overcast,160,2013-02-25 13:06:00
7:17 AM,66.2,66.2,100,29.72,1.2,South,8.1,-,N/A,,Overcast,170,2013-02-25 13:17:00
7:24 AM,66.2,66.2,100,29.73,1.8,South,8.1,-,N/A,,Mostly Cloudy,170,2013-02-25 13:24:00
7:32 AM,66.2,66.2,100,29.73,2.0,South,8.1,-,N/A,,Mostly Cloudy,170,2013-02-25 13:32:00
7:51 AM,66.9,66.9,100,29.73,2.5,SSE,8.1,-,N/A,,Mostly Cloudy,160,2013-02-25 13:51:00
8:16 AM,69.8,69.8,100,29.73,3.0,South,9.2,-,N/A,,Scattered Clouds,190,2013-02-25 14:16:00
8:51 AM,69.1,69.1,100,29.75,2.0,SSE,6.9,-,N/A,,Mostly Cloudy,160,2013-02-25 14:51:00
9:11 AM,69.8,69.8,100,29.75,3.0,Variable,3.5,-,N/A,,Mostly Cloudy,0,2013-02-25 15:11:00
9:13 AM,69.8,69.8,100,29.75,0.8,NE,3.5,-,N/A,,Mostly Cloudy,40,2013-02-25 15:13:00
9:21 AM,62.6,62.6,100,29.75,0.2,NE,3.5,-,N/A,Fog,Fog,40,2013-02-25 15:21:00
9:39 AM,60.8,60.8,100,29.75,1.5,East,9.2,-,N/A,,Overcast,80,2013-02-25 15:39:00
9:41 AM,60.8,60.8,100,29.75,3.0,East,10.4,-,N/A,,Overcast,80,2013-02-25 15:41:00
9:51 AM,61.0,61.0,100,29.75,4.0,East,8.1,-,N/A,,Overcast,90,2013-02-25 15:51:00
10:09 AM,60.8,60.8,100,29.75,4.0,East,12.7,-,N/A,,Overcast,90,2013-02-25 16:09:00
10:51 AM,61.0,60.1,97,29.75,5.0,East,12.7,-,N/A,,Overcast,90,2013-02-25 16:51:00
11:23 AM,60.8,60.8,100,29.73,5.0,East,17.3,25.3,0.00,Rain,Light Rain,80,2013-02-25 17:23:00
11:51 AM,62.1,61.0,96,29.71,5.0,East,11.5,19.6,0.01,,Overcast,80,2013-02-25 17:51:00
12:51 PM,63.0,61.0,93,29.68,7.0,ESE,6.9,-,N/A,,Overcast,120,2013-02-25 18:51:00
1:51 PM,62.1,61.0,96,29.63,4.0,East,4.6,-,0.01,Rain,Light Rain,90,2013-02-25 19:51:00
2:48 PM,64.4,62.6,94,29.60,4.0,ESE,9.2,-,0.00,,Overcast,110,2013-02-25 20:48:00
2:51 PM,64.0,63.0,96,29.60,4.0,ESE,9.2,-,0.00,,Overcast,110,2013-02-25 20:51:00
3:33 PM,66.2,64.4,94,29.58,5.0,ESE,8.1,-,N/A,,Overcast,120,2013-02-25 21:33:00
3:51 PM,64.9,64.9,100,29.57,4.0,ESE,9.2,-,N/A,,Overcast,120,2013-02-25 21:51:00
4:28 PM,66.2,66.2,100,29.56,4.0,SE,9.2,-,N/A,,Overcast,140,2013-02-25 22:28:00
4:51 PM,68.0,68.0,100,29.54,4.0,SSE,12.7,-,N/A,,Overcast,160,2013-02-25 22:51:00
5:17 PM,66.2,66.2,100,29.54,4.0,SSE,13.8,-,N/A,,Overcast,160,2013-02-25 23:17:00
5:28 PM,66.2,66.2,100,29.54,3.0,SSE,15.0,-,N/A,,Overcast,160,2013-02-25 23:28:00
5:51 PM,68.0,66.9,96,29.54,4.0,South,17.3,-,N/A,,Overcast,170,2013-02-25 23:51:00
6:35 PM,68.0,68.0,100,29.54,4.0,South,13.8,24.2,0.00,Rain,Light Rain,180,2013-02-26 00:35:00
6:51 PM,68.0,68.0,100,29.55,4.0,South,17.3,-,0.00,,Overcast,180,2013-02-26 00:51:00
7:05 PM,68.0,66.2,94,29.55,5.0,South,19.6,27.6,N/A,,Overcast,190,2013-02-26 01:05:00
7:51 PM,66.0,64.9,96,29.54,7.0,South,18.4,-,0.00,,Overcast,180,2013-02-26 01:51:00
8:29 PM,66.2,64.4,94,29.55,6.0,South,16.1,24.2,N/A,,Mostly Cloudy,190,2013-02-26 02:29:00
8:45 PM,66.2,66.2,100,29.57,2.5,SW,17.3,25.3,0.01,Rain,Rain,220,2013-02-26 02:45:00
8:51 PM,66.9,66.0,97,29.58,3.0,WSW,18.4,35.7,0.02,Rain,Light Rain,250,2013-02-26 02:51:00
8:56 PM,66.2,66.2,100,29.58,6.0,West,15.0,35.7,0.00,Rain,Light Rain,260,2013-02-26 02:56:00
9:03 PM,66.2,64.4,94,29.58,6.0,WSW,13.8,20.7,0.00,,Overcast,250,2013-02-26 03:03:00
9:28 PM,64.4,62.6,94,29.58,8.0,West,11.5,-,0.00,,Overcast,260,2013-02-26 03:28:00
9:51 PM,64.0,61.0,90,29.59,8.0,WSW,9.2,-,0.00,,Overcast,250,2013-02-26 03:51:00
10:51 PM,64.0,55.9,75,29.60,10.0,West,15.0,23.0,N/A,,Overcast,260,2013-02-26 04:51:00
11:51 PM,63.0,53.1,70,29.61,10.0,West,20.7,29.9,N/A,,Clear,260,2013-02-26 05:51:00